Location: Unspecified
(0.0000°N, 0.0000°E)
Time: 15:03:30
(UTC+01:00)

Orbus 21S - Visible Passes

Search period start: 08 December 2016 00:00
Search period end: 18 December 2016 00:00
Orbit: 271 x 33122 km, 24.0° (Epoch: 06 December)

Date Brightness Start Highest point End Pass type
(mag) Time Alt. Az. Time Alt. Az. Time Alt. Az.
09 Dec 6.2 03:05:31 20° S 03:11:30 32° SE 11:44:52 10° ENE visible
11 Dec 6.2 03:32:39 19° SSW 03:40:33 43° SE 12:20:29 10° ENE visible
13 Dec 6.3 03:59:43 15° SW 04:09:52 55° SE 12:53:52 10° ENE visible
15 Dec 6.5 04:26:46 10° SW 04:39:42 66° SE 13:25:44 10° ENE visible
17 Dec 6.7 04:54:38 10° SW 05:10:22 77° SSE 13:56:29 10° E visible
